| time (UTC) | temp C | wind direction | speed KPH | gust KPH | rain 1hr cm | rain 24hr cm | rain mn cm | humidity % | barometer mb |
| 20260504060104 | 7 | 281 | 0.0 | 8.0 | 0.00 | 0.00 | 0.00 | 87 | 1011.9 |
| 20260504044602 | 7 | 302 | 1.6 | 12.9 | 0.00 | 0.00 | 0.00 | 88 | 1012.3 |
| 20260504043055 | 7 | 271 | 0.0 | 11.3 | 0.00 | 0.00 | 0.00 | 88 | 1012.1 |
| 20260504041551 | 8 | 309 | 0.0 | 12.9 | 0.00 | 0.00 | 0.00 | 87 | 1011.8 |
| 20260504034558 | 8 | 313 | 0.0 | 14.5 | 0.00 | 0.00 | 0.00 | 87 | 1012.0 |
| 20260504033114 | 8 | 313 | 0.0 | 8.0 | 0.00 | 0.00 | 0.00 | 87 | 1011.9 |
| 20260504031543 | 8 | 311 | 3.2 | 17.7 | 0.00 | 0.00 | 0.00 | 86 | 1011.7 |
| 20260504030046 | 8 | 312 | 0.0 | 8.0 | 0.00 | 0.00 | 0.00 | 85 | 1011.3 |
| 20260504024541 | 8 | 308 | 1.6 | 14.5 | 0.00 | 0.00 | 0.00 | 84 | 1011.2 |
| 20260504023055 | 9 | 338 | 0.0 | 24.1 | 0.00 | 0.00 | 0.00 | 82 | 1011.4 |
| 20260504021536 | 10 | 307 | 1.6 | 14.5 | 0.00 | 0.00 | 0.00 | 80 | 1011.2 |
| 20260504020038 | 10 | 274 | 1.6 | 17.7 | 0.00 | 0.00 | 0.00 | 78 | 1011.0 |
| 20260504014544 | 11 | 248 | 3.2 | 12.9 | 0.00 | 0.00 | 0.00 | 76 | 1010.8 |
| 20260504013043 | 12 | 312 | 0.0 | 1.6 | 0.00 | 0.00 | 0.00 | 75 | 1010.4 |
| 20260504011534 | 12 | 346 | 0.0 | 1.6 | 0.00 | 0.00 | 0.00 | 73 | 1010.4 |
| 20260504010036 | 13 | 307 | 0.0 | 1.6 | 0.00 | 0.00 | 0.00 | 72 | 1010.2 |
| 20260504004536 | 13 | 298 | 0.0 | 3.2 | 0.00 | 0.00 | 0.00 | 70 | 1010.0 |
| 20260504003036 | 13 | 294 | 0.0 | 12.9 | 0.00 | 0.00 | 0.00 | 69 | 1009.8 |
| 20260504001532 | 14 | 309 | 0.0 | 12.9 | 0.00 | 0.00 | 0.00 | 68 | 1009.8 |
| 20260504000031 | 15 | 291 | 0.0 | 8.0 | 0.00 | 0.00 | 0.00 | 67 | 1009.8 |
| 20260503234539 | 15 | 267 | 0.0 | 12.9 | 0.00 | 0.00 | 0.00 | 68 | 1009.3 |
| 20260503233030 | 15 | 273 | 0.0 | 4.8 | 0.00 | 0.00 | 0.00 | 67 | 1009.5 |
| 20260503231533 | 15 | 323 | 0.0 | 3.2 | 0.00 | 0.00 | 0.00 | 67 | 1009.6 |
| 20260503230039 | 15 | 297 | 0.0 | 4.8 | 0.00 | 0.00 | 0.00 | 66 | 1009.6 |
| 20260503224528 | 15 | 316 | 0.0 | 0.0 | 0.00 | 0.00 | 0.00 | 65 | 1009.6 |
| 20260503223029 | 16 | 332 | 1.6 | 16.1 | 0.00 | 0.00 | 0.00 | 65 | 1009.5 |
| 20260503221528 | 16 | 312 | 0.0 | 16.1 | 0.00 | 0.00 | 0.00 | 62 | 1009.6 |
| 20260503220028 | 17 | 269 | 0.0 | 1.6 | 0.00 | 0.00 | 0.00 | 61 | 1009.7 |
| 20260503214528 | 17 | 300 | 0.0 | 1.6 | 0.00 | 0.00 | 0.00 | 60 | 1009.6 |
| 20260503213026 | 17 | 303 | 0.0 | 0.0 | 0.00 | 0.00 | 0.00 | 62 | 1009.9 |
| 20260503211525 | 17 | 286 | 0.0 | 3.2 | 0.00 | 0.00 | 0.00 | 63 | 1009.8 |
| 20260503210027 | 17 | 323 | 0.0 | 0.0 | 0.00 | 0.00 | 0.00 | 62 | 1009.8 |
| 20260503204533 | 17 | 360 | 0.0 | 3.2 | 0.00 | 0.00 | 0.00 | 61 | 1010.0 |
| 20260503203025 | 18 | 355 | 0.0 | 14.5 | 0.00 | 0.00 | 0.00 | 61 | 1010.1 |
| 20260503201523 | 18 | 306 | 0.0 | 12.9 | 0.00 | 0.00 | 0.00 | 60 | 1010.1 |
| 20260503200026 | 20 | 333 | 0.0 | 17.7 | 0.00 | 0.00 | 0.00 | 58 | 1010.0 |
| 20260503194525 | 20 | 332 | 0.0 | 24.1 | 0.00 | 0.00 | 0.00 | 56 | 1009.9 |
| 20260503193032 | 21 | 247 | 0.0 | 9.7 | 0.00 | 0.00 | 0.00 | 53 | 1009.9 |
| 20260503191522 | 22 | 261 | 0.0 | 1.6 | 0.00 | 0.00 | 0.00 | 49 | 1009.8 |
| 20260503190024 | 22 | 327 | 0.0 | 1.6 | 0.00 | 0.00 | 0.00 | 50 | 1009.8 |
| 20260503184533 | 22 | 279 | 0.0 | 0.0 | 0.00 | 0.00 | 0.00 | 43 | 1009.8 |
| 20260503183019 | 22 | 234 | 0.0 | 0.0 | 0.00 | 0.00 | 0.00 | 51 | 1009.8 |
| 20260503181516 | 21 | 344 | 0.0 | 0.0 | 0.00 | 0.00 | 0.00 | 49 | 1009.8 |
| 20260503180023 | 21 | 313 | 0.0 | 9.7 | 0.00 | 0.00 | 0.00 | 53 | 1009.8 |
| 20260503174514 | 21 | 306 | 0.0 | 0.0 | 0.00 | 0.00 | 0.00 | 53 | 1009.9 |
| 20260503173015 | 21 | 339 | 0.0 | 8.0 | 0.00 | 0.00 | 0.00 | 52 | 1009.9 |
| 20260503171509 | 20 | 225 | 0.0 | 0.0 | 0.00 | 0.00 | 0.00 | 52 | 1009.9 |
| 20260503081551 | 11 | 99 | 0.0 | 0.0 | 0.00 | 0.00 | 0.00 | 46 | 1010.4 |